[[{"header":{"parameterUnit":"m.s-1","parameterCategory":1,"la1":30.2991,"la2":30.254,"lo1":-89.0895,"lo2":-89.0444,"dy":0.0017,"dx":0.0017,"nx":28,"ny":28,"refTime":"2025-04-19T03:00:00:Z","depth":0,"parameterNumber":2,"parameterNumberName":"U-component_of_WINDS"},"data":[0,0,0,0,0,0,0,0,0,0,0,0,0,0,0,0,0,0,0,0,0,0,0,0,0,0,0,0,0,0,0,0,0,0,0,0,0,0,0,0,0,0,0,0,0,0,0,0,0,0,0,0,0,0,0,0,0,0,-4.8082,-4.8083,0,-4.8165,-4.8166,-4.8166,-4.8132,-4.813,-4.8128,-4.8126,-4.8208,-4.8212,-4.8216,0,0,0,0,0,0,0,0,0,0,0,0,0,-4.7893,-4.7896,-4.8082,-4.8083,-4.8084,-4.8164,-4.8166,-4.8167,-4.8132,-4.813,-4.8128,-4.8125,-4.8207,-4.8212,-4.8216,0,0,0,0,0,0,0,0,0,0,0,0,0,-4.7975,-4.7898,-4.8082,-4.8077,-4.8077,-4.8164,-4.8166,-4.8167,-4.8133,-4.813,-4.8127,-4.8124,-4.8205,-4.8211,-4.8217,-4.8313,0,0,-4.8235,-4.8238,0,0,0,0,0,0,0,0,-4.797,-4.7982,-4.8076,-4.8077,-4.8078,-4.8135,-4.8129,-4.8216,-4.8134,-4.8112,-4.8126,-4.8123,-4.8186,-4.8193,-4.8215,-4.8317,-4.832,-4.8236,-4.824,-4.8242,-4.8244,0,0,0,0,0,0,0,-4.7965,-4.7978,-4.8115,-4.8078,-4.8079,-4.807,-4.8078,-4.8145,-4.8164,-4.8113,-4.8111,-4.8121,-4.8186,-4.821,-4.8217,-4.8322,-4.8236,-4.8241,-4.8245,-4.8247,-4.8505,-4.8508,0,0,0,0,0,0,-4.7959,-4.7974,-4.8112,-4.8117,-4.8016,-4.8075,-4.8085,-4.812,-4.8163,-4.8167,-4.8124,-4.812,-4.8201,-4.821,-4.822,-4.8334,-4.8242,-4.8248,-4.8251,-4.8502,-4.8506,-4.851,0,0,0,0,0,0,-4.7955,-4.7972,-4.8109,-4.8045,-4.8062,-4.8082,-4.8121,-4.8123,-4.8146,-4.8171,-4.8174,-4.8145,-4.8199,-4.8211,-4.829,-4.8336,-4.825,-4.8256,-4.8498,-4.8503,-4.8508,-4.8563,0,0,0,0,0,0,-4.795,-4.7971,-4.8008,-4.8046,-4.8065,-4.8178,-4.8124,-4.8127,-4.8157,-4.8152,-4.8192,-4.8195,-4.8197,-4.8281,-4.8296,-4.8343,-4.8261,-4.8494,-4.8501,-4.8506,-4.8557,-4.857,-4.858,0,0,0,0,0,-4.7943,-4.802,-4.801,-4.8027,-4.8112,-4.8181,-4.8192,-4.8193,-4.8161,-4.8198,-4.8214,-4.8194,-4.8329,-4.829,-4.8306,-4.8355,-4.8491,-4.8499,-4.8506,-4.8552,-4.8567,-4.858,0,0,0,0,0,0,-4.7985,-4.8025,-4.8014,-4.8105,-4.814,-4.8175,-4.8222,-4.8209,-4.8253,-4.8247,-4.8246,-4.8255,-4.8336,-4.8354,-4.8309,-4.845,-4.8405,-4.8416,-4.8435,-4.8449,-4.846,-4.8453,-4.8266,0,0,0,0,0,-4.8006,-4.8059,-4.809,-4.8168,-4.8186,-4.8201,-4.8231,-4.823,-4.8265,-4.828,-4.8301,-4.8336,-4.8386,-4.8419,-4.8467,-4.8561,-4.8568,-4.8603,-4.8614,-4.8623,-4.8632,-4.8681,-4.8697,-4.8534,-4.8534,-4.8533,0,0,-4.8047,-4.8075,-4.8109,-4.8177,-4.8204,-4.8258,-4.8214,-4.8273,-4.8313,-4.8288,-4.8364,-4.8382,-4.842,-4.8507,-4.8546,-4.8524,-4.8679,-4.8633,-4.864,-4.8643,-4.869,-4.8706,-4.872,-4.8539,-4.8538,-4.8537,0,0,-4.815,-4.8178,-4.8245,-4.8273,-4.8315,-4.8324,-4.8341,-4.8378,-4.8389,-4.8465,-4.8447,-4.8495,-4.8582,-4.861,-4.8635,-4.875,-4.8733,-4.8766,-4.8823,-4.8872,-4.8885,-4.8896,-4.8935,-4.8949,-4.8775,-4.8775,-4.8775,0,-4.8196,-4.8278,-4.8281,-4.8342,-4.8372,-4.8353,-4.842,-4.8447,-4.8502,-4.8523,-4.8498,-4.8606,-4.8631,-4.8723,-4.8752,-4.8774,-4.8791,-4.876,-4.8883,-4.8894,-4.8905,-4.8942,-4.8957,-4.8779,-4.8778,-4.8778,-4.8778,0,-4.8332,-4.8389,-4.8438,-4.8492,-4.8528,-4.8592,-4.8603,-4.8639,-4.8635,-4.8647,-4.8724,-4.8754,-4.8807,-4.8829,-4.8826,-4.8921,-4.8906,-4.8883,-4.8837,-4.8924,-4.8959,-4.8973,-4.8784,-4.8783,-4.8782,-4.8781,0,0,-4.8461,-4.8517,-4.8535,-4.8558,-4.8604,-4.8647,-4.8711,-4.8763,-4.8793,-4.8832,-4.8884,-4.8959,-4.8937,-4.8966,-4.8966,-4.9009,-4.9096,-4.898,-4.898,-4.8998,-4.9201,-4.9216,-4.9233,-4.9086,-4.9089,-4.9091,-4.9196,0,-4.8566,-4.8677,-4.8681,-4.8782,-4.8834,-4.8818,-4.8872,-4.8906,-4.8919,-4.8965,-4.898,-4.9032,-4.9001,-4.9018,-4.906,-4.9076,-4.9136,-4.9069,-4.9132,-4.9134,-4.912,-4.9251,-4.9268,-4.9366,-4.921,-4.9213,-4.9214,0,-4.8702,-4.8746,-4.8852,-4.8889,-4.8911,-4.8961,-4.9009,-4.9053,-4.9091,-4.9097,-4.9131,-4.9124,-4.9188,-4.9142,-4.9229,-4.9183,-4.921,-4.9222,-4.9226,-4.9229,-4.9177,-4.9256,-4.9397,-4.9411,-4.9236,-4.9235,-4.9233,0,-4.8783,-4.8869,-4.8943,-4.8965,-4.9011,-4.9045,-4.9066,-4.91,-4.9132,-4.9174,-4.9194,-4.9244,-4.927,-4.9308,-4.9314,-4.9281,-4.9401,-4.9356,-4.9406,-4.9406,-4.943,-4.9428,-4.9575,-4.9452,-4.9451,-4.9451,-4.9451,0,-4.8898,-4.8963,-4.898,-4.9025,-4.9097,-4.9102,-4.9173,-4.9191,-4.9222,-4.927,-4.926,-4.9305,-4.9312,-4.9359,-4.9365,-4.9434,-4.9447,-4.9453,-4.9453,-4.9452,-4.9451,-4.9467,-4.946,-4.9455,-4.9454,-4.9453,-4.9453,0,-4.9,-4.9014,-4.9093,-4.9131,-4.9142,-4.9193,-4.9225,-4.9268,-4.9281,-4.9341,-4.9356,-4.9376,-4.943,-4.9442,-4.9506,-4.951,-4.9592,-4.9587,-4.9579,-4.9578,-4.9627,-4.9621,-4.9787,-4.9809,-4.9674,-4.9675,-4.9676,0,-4.9071,-4.912,-4.9163,-4.9195,-4.9217,-4.9269,-4.9301,-4.9308,-4.9341,-4.9388,-4.9425,-4.9478,-4.9521,-4.9609,-4.9628,-4.9677,-4.9672,-4.9727,-4.9679,-4.9676,-4.9669,-4.9665,-4.9669,-4.9735,-4.9736,-4.9737,-4.9738,0,-4.9194,-4.9199,-4.9246,-4.9296,-4.9334,-4.9374,-4.9411,-4.9437,-4.9449,-4.9487,-4.9543,-4.9576,-4.9643,-4.9695,-4.9744,-4.9765,-4.9753,-4.9754,-4.9768,-4.9766,-4.9758,-4.9761,-4.9602,-4.9749,-4.9748,-4.9747,-4.9747,-4.9746,-4.9281,-4.9324,-4.9361,-4.9413,-4.9442,-4.9478,-4.9519,-4.9538,-4.9585,-4.9639,-4.9641,-4.9701,-4.9737,-4.9802,-4.9826,-4.9873,-4.9855,-4.9876,-4.988,-4.9885,-4.9888,-4.9754,-4.9882,-4.9882,-4.9882,-4.9881,-4.9881,0,-4.9402,-4.9426,-4.9474,-4.9527,-4.9568,-4.9555,-4.9596,-4.9631,-4.9684,-4.9719,-4.9762,-4.9825,-4.9877,-4.9901,-4.9952,-4.9984,-4.998,-4.9997,-4.9993,-4.9998,-4.9902,-4.9884,-4.9999,-4.9999,-4.9999,-4.9999,-4.9999,-4.9999,-4.947,-4.9541,-4.955,-4.9636,-4.9659,-4.9718,-4.9742,-4.9774,-4.9802,-4.9874,-4.9916,-4.9932,-4.9963,-5.0016,-5.0062,-5.0068,-5.0085,-5.0104,-5.0107,-5.0017,-5.0005,-4.9993,-4.9976,-5.0109,-5.0109,-5.0199,-5.02,-5.02]},{"header":{"parameterUnit":"m.s-1","parameterCategory":1,"la1":30.2991,"la2":30.254,"lo1":-89.0895,"lo2":-89.0444,"dy":0.0017,"dx":0.0017,"nx":28,"ny":28,"refTime":"2025-04-19T03:00:00:Z","depth":0,"parameterNumber":3,"parameterNumberName":"V-component_of_WINDS"},"data":[0,0,0,0,0,0,0,0,0,0,0,0,0,0,0,0,0,0,0,0,0,0,0,0,0,0,0,0,0,0,0,0,0,0,0,0,0,0,0,0,0,0,0,0,0,0,0,0,0,0,0,0,0,0,0,0,0,0,3.2899,3.29,0,3.2951,3.2952,3.2953,3.2915,3.2914,3.2912,3.291,3.2961,3.2964,3.2967,0,0,0,0,0,0,0,0,0,0,0,0,0,3.2767,3.277,3.2899,3.29,3.2901,3.2951,3.2952,3.2953,3.2915,3.2913,3.2911,3.291,3.296,3.2964,3.2967,0,0,0,0,0,0,0,0,0,0,0,0,0,3.2822,3.277,3.2899,3.2888,3.2888,3.2951,3.2952,3.2953,3.2916,3.2913,3.2911,3.2909,3.2959,3.2963,3.2968,3.3044,0,0,3.2981,3.2983,0,0,0,0,0,0,0,0,3.2819,3.2827,3.2889,3.2889,3.2889,3.2924,3.2924,3.2983,3.2917,3.2905,3.291,3.2907,3.2951,3.2956,3.2971,3.3046,3.3048,3.2981,3.2984,3.2986,3.2987,0,0,0,0,0,0,0,3.2815,3.2825,3.292,3.289,3.289,3.288,3.2886,3.2935,3.2941,3.2906,3.2903,3.291,3.295,3.2967,3.2972,3.3049,3.2981,3.2985,3.2988,3.2989,3.3191,3.3194,0,0,0,0,0,0,3.2813,3.2822,3.2918,3.2921,3.2847,3.2885,3.2891,3.2915,3.2941,3.2942,3.2912,3.2908,3.2961,3.2967,3.2973,3.3065,3.2986,3.299,3.2992,3.3189,3.3192,3.3195,0,0,0,0,0,0,3.281,3.2822,3.2916,3.2871,3.2882,3.289,3.2918,3.2918,3.2934,3.2945,3.2946,3.2928,3.2959,3.2967,3.3027,3.3066,3.2992,3.2996,3.3185,3.319,3.3194,3.3249,0,0,0,0,0,0,3.2806,3.2821,3.285,3.2872,3.2885,3.2969,3.292,3.292,3.2942,3.2937,3.296,3.2962,3.2958,3.3021,3.3032,3.3071,3.2999,3.3182,3.3187,3.3192,3.3244,3.3254,3.3264,0,0,0,0,0,3.2802,3.2863,3.2852,3.2864,3.2922,3.2972,3.2979,3.2974,3.2945,3.2975,3.2982,3.2961,3.3061,3.3027,3.3039,3.308,3.3179,3.3186,3.3192,3.3239,3.3252,3.3263,0,0,0,0,0,0,3.2844,3.2865,3.2853,3.2923,3.2946,3.2965,3.3002,3.2988,3.3018,3.3012,3.3004,3.3009,3.3072,3.3082,3.3045,3.3156,3.3115,3.3124,3.3147,3.316,3.317,3.3166,3.3003,0,0,0,0,0,3.2862,3.2901,3.2918,3.2978,3.299,3.2994,3.3016,3.301,3.3033,3.3042,3.3054,3.3077,3.3113,3.3137,3.3171,3.3245,3.325,3.3279,3.3289,3.3298,3.3305,3.3346,3.336,3.3215,3.3215,3.3215,0,0,3.2898,3.2915,3.294,3.2987,3.3004,3.3045,3.3003,3.3047,3.3078,3.3049,3.3106,3.3116,3.3141,3.3209,3.3239,3.3219,3.3346,3.3306,3.3312,3.3315,3.3354,3.3368,3.338,3.322,3.3219,3.3218,0,0,3.2986,3.3002,3.3055,3.3073,3.31,3.3103,3.3116,3.3138,3.3143,3.3201,3.3181,3.3217,3.3279,3.3298,3.3316,3.3413,3.3395,3.3425,3.3477,3.3517,3.3528,3.3538,3.3574,3.3586,3.3432,3.3432,3.3432,0,3.3027,3.3089,3.3083,3.313,3.3152,3.3129,3.3182,3.32,3.3236,3.3252,3.3229,3.3308,3.3323,3.3396,3.342,3.3435,3.3449,3.3422,3.3527,3.3537,3.3547,3.358,3.3593,3.3436,3.3435,3.3435,3.3435,0,3.3139,3.3182,3.3221,3.3259,3.3285,3.3334,3.3336,3.3363,3.3356,3.3361,3.3421,3.3438,3.3476,3.3493,3.3485,3.3565,3.3552,3.3528,3.3487,3.3564,3.3595,3.3608,3.3441,3.3439,3.3438,3.3438,0,0,3.3253,3.3288,3.3303,3.332,3.3349,3.3382,3.3431,3.347,3.3493,3.3519,3.356,3.3615,3.3594,3.3615,3.3609,3.3644,3.3721,3.3617,3.3617,3.3636,3.3811,3.3829,3.3844,3.371,3.3712,3.3714,3.3809,0,3.3343,3.343,3.3427,3.3507,3.3548,3.3527,3.357,3.3593,3.36,3.3634,3.3641,3.3681,3.365,3.3662,3.3696,3.3705,3.3756,3.3698,3.3748,3.375,3.3743,3.386,3.3878,3.3967,3.3821,3.3823,3.3825,0,3.3458,3.349,3.3575,3.36,3.3617,3.3655,3.3691,3.3725,3.375,3.3752,3.3776,3.3766,3.3816,3.3774,3.3843,3.3803,3.3824,3.3831,3.3835,3.3839,3.3792,3.3868,3.3995,3.4008,3.3844,3.3842,3.3841,0,3.3534,3.3598,3.3658,3.3673,3.3703,3.3731,3.3744,3.3767,3.3791,3.3822,3.3837,3.3873,3.3893,3.3921,3.3921,3.389,3.3991,3.3949,3.3995,3.3995,3.4017,3.4015,3.4149,3.403,3.403,3.4029,3.4029,0,3.3634,3.3687,3.3692,3.3729,3.3788,3.3785,3.3843,3.3854,3.3875,3.3913,3.3897,3.3934,3.3931,3.3968,3.3967,3.4025,3.4034,3.4037,3.4037,3.4039,3.4039,3.4052,3.4046,3.4033,3.4032,3.4031,3.4031,0,3.3729,3.3734,3.3798,3.3822,3.3829,3.3871,3.3892,3.3926,3.3932,3.3981,3.3993,3.4002,3.4044,3.4047,3.4096,3.4096,3.4166,3.4158,3.4158,3.4157,3.4202,3.4198,3.435,3.437,3.4237,3.4238,3.424,0,3.3792,3.3833,3.3862,3.3887,3.3903,3.3943,3.3968,3.3966,3.3992,3.4025,3.4056,3.4098,3.4131,3.42,3.421,3.4248,3.4241,3.4292,3.4247,3.4248,3.4243,3.4241,3.4245,3.4301,3.4302,3.4303,3.4304,0,3.3905,3.3906,3.3943,3.3981,3.4011,3.4041,3.4068,3.4089,3.4091,3.4121,3.4166,3.4191,3.4242,3.4284,3.4321,3.4334,3.432,3.4319,3.4331,3.4334,3.4332,3.4335,3.4182,3.4315,3.4314,3.4313,3.4313,3.4312,3.3986,3.4022,3.4049,3.409,3.4111,3.4137,3.4172,3.4183,3.422,3.4262,3.4258,3.4308,3.4333,3.4381,3.4398,3.4436,3.4419,3.4437,3.4442,3.4447,3.4452,3.4326,3.4443,3.4443,3.4442,3.4442,3.4442,0,3.4099,3.4115,3.4154,3.4194,3.4227,3.4211,3.4241,3.427,3.4313,3.4339,3.4372,3.4423,3.4464,3.4479,3.4518,3.4546,3.4541,3.4557,3.4555,3.4558,3.4465,3.445,3.4561,3.4561,3.4561,3.4561,3.456,3.456,3.4161,3.4221,3.4226,3.4296,3.4312,3.4361,3.438,3.4404,3.4425,3.4483,3.4517,3.4527,3.4548,3.4589,3.4626,3.4629,3.4645,3.4664,3.4664,3.4577,3.4565,3.4553,3.4539,3.4667,3.4667,3.4755,3.4756,3.4756]}]]